KC4KQE Weather Reports


time (UTC)temp
C
wind
direction
speed
KPH
gust
KPH
rain 1hr
cm
rain 24hr
cm
rain mn
cm
humidity
%
barometer
mb
20260507182417 30 110 1.6 12.9 0.00 0.00 0.00 10 1013.3
20260507181917 30 110 11.3 11.3 0.00 0.00 0.00 11 1013.4
20260507181417 30 110 4.8 11.3 0.00 0.00 0.00 11 1013.4
20260507180916 30 110 3.2 12.9 0.00 0.00 0.00 12 1013.5
20260507180416 29 110 1.6 11.3 0.00 0.00 0.00 12 1013.6
20260507175916 29 110 8.0 12.9 0.00 0.00 0.00 12 1013.5
20260507175417 29 110 3.2 12.9 0.00 0.00 0.00 13 1013.6
20260507174916 28 110 8.0 12.9 0.00 0.00 0.00 13 1013.6
20260507174416 28 110 11.3 14.5 0.00 0.00 0.00 14 1013.7
20260507173917 28 110 6.4 8.0 0.00 0.00 0.00 14 1013.8
20260507173416 28 110 3.2 11.3 0.00 0.00 0.00 14 1013.8
20260507172917 28 110 6.4 8.0 0.00 0.00 0.00 15 1013.8
20260507172417 28 110 4.8 14.5 0.00 0.00 0.00 15 1013.9
20260507171917 27 110 4.8 14.5 0.00 0.00 0.00 15 1013.9
20260507171418 27 110 4.8 11.3 0.00 0.00 0.00 16 1014.0
20260507170917 27 110 3.2 8.0 0.00 0.00 0.00 17 1014.0
20260507170417 27 110 4.8 14.5 0.00 0.00 0.00 17 1014.1
20260507165916 27 110 8.0 11.3 0.00 0.00 0.00 17 1014.1
20260507165417 26 110 4.8 11.3 0.00 0.00 0.00 18 1014.1
20260507164917 26 110 4.8 12.9 0.00 0.00 0.00 19 1014.2
20260507164416 26 110 3.2 12.9 0.00 0.00 0.00 20 1014.2
20260507163917 26 110 4.8 14.5 0.00 0.00 0.00 19 1014.3
20260507163416 26 110 3.2 12.9 0.00 0.00 0.00 20 1014.2
20260507162916 26 110 8.0 8.0 0.00 0.00 0.00 21 1014.3
20260507162417 26 110 6.4 8.0 0.00 0.00 0.00 20 1014.3
20260507161916 25 110 4.8 8.0 0.00 0.00 0.00 20 1014.3
20260507161417 25 110 6.4 12.9 0.00 0.00 0.00 21 1014.3
20260507160917 25 110 6.4 11.3 0.00 0.00 0.00 22 1014.4
20260507160416 25 110 8.0 8.0 0.00 0.00 0.00 22 1014.5
20260507155917 25 110 1.6 6.4 0.00 0.00 0.00 22 1014.5
20260507155417 25 110 4.8 12.9 0.00 0.00 0.00 22 1014.5
20260507154916 24 110 3.2 8.0 0.00 0.00 0.00 23 1014.5
20260507154416 24 110 1.6 6.4 0.00 0.00 0.00 23 1014.5
20260507153916 23 110 1.6 4.8 0.00 0.00 0.00 24 1014.5
20260507153416 23 110 1.6 11.3 0.00 0.00 0.00 25 1014.5
20260507152916 23 110 3.2 6.4 0.00 0.00 0.00 25 1014.6
20260507152417 23 110 3.2 8.0 0.00 0.00 0.00 27 1014.5
20260507151917 22 110 4.8 8.0 0.00 0.00 0.00 27 1014.5
20260507151416 22 110 6.4 11.3 0.00 0.00 0.00 27 1014.6
20260507150917 22 110 4.8 8.0 0.00 0.00 0.00 28 1014.7
20260507150416 22 110 0.0 6.4 0.00 0.00 0.00 29 1014.6
20260507145916 22 110 1.6 6.4 0.00 0.00 0.00 29 1014.5
20260507145416 22 110 3.2 6.4 0.00 0.00 0.00 29 1014.5
20260507144917 21 110 1.6 4.8 0.00 0.00 0.00 29 1014.5
20260507144416 21 110 1.6 3.2 0.00 0.00 0.00 29 1014.6
20260507143917 21 110 1.6 4.8 0.00 0.00 0.00 29 1014.6
20260507143417 21 110 1.6 4.8 0.00 0.00 0.00 29 1014.5
20260507142916 21 110 0.0 4.8 0.00 0.00 0.00 30 1014.5
20260507142417 21 110 1.6 1.6 0.00 0.00 0.00 31 1014.5
20260507141918 20 110 4.8 4.8 0.00 0.00 0.00 31 1014.6
20260507141416 20 110 0.0 11.3 0.00 0.00 0.00 31 1014.6
20260507140916 20 110 4.8 8.0 0.00 0.00 0.00 31 1014.5
20260507140416 20 110 3.2 8.0 0.00 0.00 0.00 31 1014.5
20260507135916 20 110 1.6 3.2 0.00 0.00 0.00 31 1014.5
20260507135416 19 110 0.0 1.6 0.00 0.00 0.00 34 1014.4
20260507134916 18 110 0.0 3.2 0.00 0.00 0.00 34 1014.2
20260507134416 18 110 0.0 3.2 0.00 0.00 0.00 34 1014.1
20260507133916 18 110 1.6 6.4 0.00 0.00 0.00 36 1014.1
20260507133417 17 110 3.2 4.8 0.00 0.00 0.00 37 1014.1
20260507132917 17 110 3.2 4.8 0.00 0.00 0.00 38 1014.2
20260507132416 16 110 0.0 1.6 0.00 0.00 0.00 39 1014.1
20260507131916 16 110 0.0 3.2 0.00 0.00 0.00 38 1014.0
20260507131418 17 110 0.0 3.2 0.00 0.00 0.00 36 1014.0
20260507130917 17 110 1.6 3.2 0.00 0.00 0.00 36 1014.0
20260507130417 17 110 0.0 6.4 0.00 0.00 0.00 37 1014.0
20260507125916 17 110 4.8 4.8 0.00 0.00 0.00 37 1014.0
20260507125416 17 110 0.0 8.0 0.00 0.00 0.00 37 1014.0
20260507124916 16 110 3.2 6.4 0.00 0.00 0.00 38 1013.9
20260507124416 16 110 0.0 3.2 0.00 0.00 0.00 38 1013.9
20260507123916 16 110 1.6 4.8 0.00 0.00 0.00 39 1013.9
20260507123418 16 110 1.6 3.2 0.00 0.00 0.00 39 1013.8
20260507122916 16 110 1.6 4.8 0.00 0.00 0.00 39 1013.7
20260507122417 16 110 0.0 3.2 0.00 0.00 0.00 38 1013.8
20260507121917 16 110 3.2 4.8 0.00 0.00 0.00 37 1013.7
20260507121417 17 110 0.0 0.0 0.00 0.00 0.00 35 1013.7
20260507120917 17 110 0.0 3.2 0.00 0.00 0.00 35 1013.7
20260507120417 18 110 3.2 4.8 0.00 0.00 0.00 33 1013.7
20260507115917 18 110 0.0 8.0 0.00 0.00 0.00 32 1013.7
20260507115416 18 110 6.4 8.0 0.00 0.00 0.00 32 1013.6
20260507114917 18 110 1.6 8.0 0.00 0.00 0.00 31 1013.7
20260507114417 18 110 6.4 11.3 0.00 0.00 0.00 32 1013.8
20260507113916 18 110 4.8 8.0 0.00 0.00 0.00 32 1013.8
20260507113416 18 110 0.0 11.3 0.00 0.00 0.00 32 1013.7
20260507112916 18 110 4.8 17.7 0.00 0.00 0.00 32 1013.7
20260507112417 18 110 8.0 14.5 0.00 0.00 0.00 32 1013.7
20260507111916 18 110 12.9 16.1 0.00 0.00 0.00 33 1013.7
20260507111416 18 110 4.8 8.0 0.00 0.00 0.00 32 1013.7
20260507110916 18 110 4.8 12.9 0.00 0.00 0.00 32 1013.7
20260507110417 18 110 4.8 11.3 0.00 0.00 0.00 32 1013.7
20260507105917 18 110 6.4 16.1 0.00 0.00 0.00 32 1013.7
20260507105416 18 110 8.0 14.5 0.00 0.00 0.00 33 1013.7
20260507104916 18 110 6.4 14.5 0.00 0.00 0.00 33 1013.7
20260507104418 18 110 4.8 6.4 0.00 0.00 0.00 33 1013.7
20260507103916 18 110 4.8 6.4 0.00 0.00 0.00 33 1013.7
20260507103416 18 110 4.8 8.0 0.00 0.00 0.00 33 1013.8
20260507102916 18 110 4.8 8.0 0.00 0.00 0.00 33 1013.9
20260507102417 18 110 4.8 0.0 0.00 0.00 0.00 33 1014.0
20260507101917 18 110 4.8 6.4 0.00 0.00 0.00 33 1014.0
20260507101417 18 110 6.4 11.3 0.00 0.00 0.00 33 1014.0
20260507100916 18 110 6.4 11.3 0.00 0.00 0.00 33 1014.1
20260507100417 18 110 3.2 11.3 0.00 0.00 0.00 32 1014.2
20260507095916 18 110 4.8 11.3 0.00 0.00 0.00 32 1014.3
20260507095417 18 110 6.4 14.5 0.00 0.00 0.00 32 1014.3
20260507094917 18 110 8.0 14.5 0.00 0.00 0.00 32 1014.4
20260507094418 18 110 12.9 14.5 0.00 0.00 0.00 32 1014.5
20260507093917 18 110 4.8 12.9 0.00 0.00 0.00 32 1014.4
20260507093416 18 110 6.4 12.9 0.00 0.00 0.00 32 1014.5
20260507092917 18 110 4.8 11.3 0.00 0.00 0.00 32 1014.5
20260507092416 18 110 4.8 14.5 0.00 0.00 0.00 32 1014.6
20260507091917 18 110 6.4 11.3 0.00 0.00 0.00 32 1014.6
20260507091416 18 110 8.0 11.3 0.00 0.00 0.00 32 1014.6
20260507090916 18 110 3.2 12.9 0.00 0.00 0.00 32 1014.6
20260507090416 17 110 8.0 11.3 0.00 0.00 0.00 32 1014.6
20260507085916 17 110 6.4 8.0 0.00 0.00 0.00 32 1014.6
20260507085417 17 110 4.8 8.0 0.00 0.00 0.00 32 1014.7
20260507084917 18 110 3.2 8.0 0.00 0.00 0.00 32 1014.7
20260507084416 18 110 6.4 8.0 0.00 0.00 0.00 32 1014.8
20260507083916 18 110 4.8 6.4 0.00 0.00 0.00 31 1014.8
20260507083416 18 110 6.4 8.0 0.00 0.00 0.00 31 1014.9
20260507082916 18 110 8.0 8.0 0.00 0.00 0.00 30 1014.9
20260507082416 18 110 6.4 8.0 0.00 0.00 0.00 30 1015.0
20260507081917 19 110 4.8 8.0 0.00 0.00 0.00 29 1015.0
20260507081416 20 110 6.4 11.3 0.00 0.00 0.00 28 1015.0
20260507080916 20 110 6.4 12.9 0.00 0.00 0.00 28 1015.0
20260507080416 20 110 4.8 11.3 0.00 0.00 0.00 28 1015.1
20260507075916 21 110 3.2 8.0 0.00 0.00 0.00 28 1015.1
20260507075416 21 110 4.8 8.0 0.00 0.00 0.00 27 1015.0
20260507074916 21 110 3.2 12.9 0.00 0.00 0.00 28 1015.1
20260507074417 21 110 6.4 8.0 0.00 0.00 0.00 28 1015.1
20260507073917 20 110 3.2 6.4 0.00 0.00 0.00 29 1015.1
20260507073416 19 110 3.2 6.4 0.00 0.00 0.00 30 1015.1
20260507072917 19 110 4.8 4.8 0.00 0.00 0.00 31 1015.1
20260507072416 19 110 1.6 4.8 0.00 0.00 0.00 30 1015.1
20260507071917 20 110 3.2 4.8 0.00 0.00 0.00 29 1015.1
20260507071418 20 110 3.2 4.8 0.00 0.00 0.00 28 1015.1
20260507070916 21 110 0.0 4.8 0.00 0.00 0.00 27 1015.0
20260507070418 21 110 1.6 4.8 0.00 0.00 0.00 27 1015.1
20260507065916 21 110 3.2 11.3 0.00 0.00 0.00 27 1015.1
20260507065417 21 110 3.2 11.3 0.00 0.00 0.00 27 1015.1
20260507064916 20 110 6.4 8.0 0.00 0.00 0.00 28 1015.0
20260507064416 21 110 4.8 8.0 0.00 0.00 0.00 28 1015.0
20260507063916 20 110 4.8 11.3 0.00 0.00 0.00 29 1015.0
20260507063416 20 110 1.6 3.2 0.00 0.00 0.00 29 1015.0
20260507062916 20 110 3.2 6.4 0.00 0.00 0.00 29 1015.0
20260507062416 20 110 3.2 6.4 0.00 0.00 0.00 29 1014.9
20260507061916 19 110 1.6 6.4 0.00 0.00 0.00 31 1014.8
20260507061417 19 110 6.4 6.4 0.00 0.00 0.00 32 1015.0
20260507060916 18 110 3.2 4.8 0.00 0.00 0.00 33 1015.0
20260507060416 18 110 0.0 3.2 0.00 0.00 0.00 33 1015.0
20260507055916 19 110 0.0 3.2 0.00 0.00 0.00 33 1015.0
20260507055418 19 110 0.0 0.0 0.00 0.00 0.00 32 1014.9
20260507054916 20 110 0.0 0.0 0.00 0.00 0.00 31 1015.0
20260507054416 20 110 0.0 0.0 0.00 0.00 0.00 31 1015.0
20260507053916 20 110 0.0 1.6 0.00 0.00 0.00 30 1015.0
20260507053416 20 110 1.6 1.6 0.00 0.00 0.00 30 1014.9
20260507052916 20 110 0.0 1.6 0.00 0.00 0.00 30 1014.9
20260507052417 20 110 0.0 3.2 0.00 0.00 0.00 31 1014.9
20260507051917 19 110 0.0 3.2 0.00 0.00 0.00 32 1015.0
20260507051417 19 110 1.6 1.6 0.00 0.00 0.00 32 1014.9
20260507050917 19 110 0.0 0.0 0.00 0.00 0.00 33 1015.0
20260507050416 20 110 0.0 0.0 0.00 0.00 0.00 32 1015.0
20260507045917 20 110 0.0 3.2 0.00 0.00 0.00 33 1014.9
20260507045416 20 110 1.6 3.2 0.00 0.00 0.00 32 1014.9
20260507044916 20 110 0.0 1.6 0.00 0.00 0.00 32 1014.9
20260507044417 20 110 1.6 1.6 0.00 0.00 0.00 31 1014.8
20260507043916 20 110 0.0 3.2 0.00 0.00 0.00 31 1014.8
20260507043418 20 110 1.6 3.2 0.00 0.00 0.00 31 1014.7
20260507042916 20 110 1.6 3.2 0.00 0.00 0.00 31 1014.7
20260507042416 20 110 3.2 3.2 0.00 0.00 0.00 31 1014.7
20260507041916 21 110 1.6 3.2 0.00 0.00 0.00 31 1014.6
20260507041417 21 110 1.6 3.2 0.00 0.00 0.00 31 1014.5
20260507040916 21 110 1.6 1.6 0.00 0.00 0.00 31 1014.5
20260507040416 21 110 0.0 1.6 0.00 0.00 0.00 31 1014.4
20260507035916 21 110 1.6 3.2 0.00 0.00 0.00 31 1014.3
20260507035416 21 110 1.6 1.6 0.00 0.00 0.00 30 1014.3
20260507034916 21 110 0.0 1.6 0.00 0.00 0.00 30 1014.2
20260507034416 21 110 1.6 1.6 0.00 0.00 0.00 30 1014.1
20260507033916 21 110 0.0 1.6 0.00 0.00 0.00 30 1014.1
20260507033416 21 110 0.0 1.6 0.00 0.00 0.00 30 1014.0
20260507032916 21 110 0.0 0.0 0.00 0.00 0.00 29 1014.0
20260507032416 21 110 0.0 0.0 0.00 0.00 0.00 28 1013.9
20260507031916 22 110 0.0 0.0 0.00 0.00 0.00 27 1013.8
20260507031416 22 110 0.0 0.0 0.00 0.00 0.00 27 1013.8
20260507030916 22 110 0.0 0.0 0.00 0.00 0.00 27 1013.7
20260507030416 22 110 0.0 1.6 0.00 0.00 0.00 26 1013.7
20260507025916 22 110 0.0 1.6 0.00 0.00 0.00 26 1013.6
20260507025416 23 110 1.6 3.2 0.00 0.00 0.00 24 1013.5
20260507024916 23 110 0.0 3.2 0.00 0.00 0.00 24 1013.5
20260507024416 23 110 0.0 0.0 0.00 0.00 0.00 24 1013.4
20260507023916 23 110 0.0 3.2 0.00 0.00 0.00 23 1013.4
20260507023418 24 110 0.0 3.2 0.00 0.00 0.00 22 1013.4
20260507022916 25 110 3.2 4.8 0.00 0.00 0.00 22 1013.3
20260507022418 25 110 4.8 6.4 0.00 0.00 0.00 21 1013.2
20260507021916 25 110 3.2 6.4 0.00 0.00 0.00 21 1013.2
20260507021416 25 110 6.4 8.0 0.00 0.00 0.00 21 1013.1
20260507020916 25 110 3.2 14.5 0.00 0.00 0.00 21 1013.1
20260507020417 25 110 1.6 4.8 0.00 0.00 0.00 21 1013.1
20260507015916 26 110 4.8 8.0 0.00 0.00 0.00 20 1013.1
20260507015416 26 110 3.2 12.9 0.00 0.00 0.00 20 1013.0
20260507014917 26 110 3.2 12.9 0.00 0.00 0.00 20 1013.0
20260507014417 26 110 8.0 11.3 0.00 0.00 0.00 20 1013.0
20260507013916 26 110 6.4 14.5 0.00 0.00 0.00 20 1013.0
20260507013416 26 110 6.4 14.5 0.00 0.00 0.00 19 1013.0
20260507012916 26 110 6.4 14.5 0.00 0.00 0.00 19 1013.0
20260507012417 26 110 8.0 16.1 0.00 0.00 0.00 19 1013.0
20260507011917 26 110 6.4 14.5 0.00 0.00 0.00 19 1013.0
20260507011417 26 110 3.2 16.1 0.00 0.00 0.00 19 1013.0
20260507010922 26 110 8.0 14.5 0.00 0.00 0.00 19 1013.0
20260507010418 27 110 12.9 17.7 0.00 0.00 0.00 19 1013.0
20260507005916 26 110 1.6 17.7 0.00 0.00 0.00 19 1013.0
20260507005416 27 110 14.5 17.7 0.00 0.00 0.00 19 1012.9
20260507004916 27 110 1.6 8.0 0.00 0.00 0.00 19 1012.9
20260507004417 27 110 3.2 12.9 0.00 0.00 0.00 19 1012.9
20260507003916 27 110 8.0 11.3 0.00 0.00 0.00 19 1012.9
20260507003416 27 110 8.0 17.7 0.00 0.00 0.00 19 1012.9
20260507002916 27 110 11.3 17.7 0.00 0.00 0.00 19 1012.8
20260507002417 27 110 6.4 16.1 0.00 0.00 0.00 19 1012.9
20260507001917 27 110 8.0 17.7 0.00 0.00 0.00 19 1012.8
20260507001416 27 110 6.4 16.1 0.00 0.00 0.00 19 1012.8
20260507000916 27 110 4.8 17.7 0.00 0.00 0.00 19 1012.9
20260507000416 27 110 8.0 16.1 0.00 0.00 0.00 19 1012.8
20260506235916 27 110 11.3 14.5 0.00 0.00 0.00 19 1012.9
20260506235416 27 110 8.0 16.1 0.00 0.00 0.00 19 1012.8
20260506234917 27 110 11.3 17.7 0.00 0.00 0.00 19 1012.9
20260506234416 27 110 4.8 16.1 0.00 0.00 0.00 19 1013.0
20260506233917 27 110 1.6 19.3 0.00 0.00 0.00 18 1013.0
20260506233416 27 110 12.9 25.7 0.00 0.00 0.00 18 1013.0
20260506232916 27 110 16.1 20.9 0.00 0.00 0.00 19 1013.0
20260506232416 27 110 3.2 17.7 0.00 0.00 0.00 19 1013.0
20260506231916 27 110 0.0 14.5 0.00 0.00 0.00 19 1013.1
20260506231417 27 110 8.0 14.5 0.00 0.00 0.00 19 1013.1
20260506230916 27 110 4.8 20.9 0.00 0.00 0.00 19 1013.2
20260506230416 27 110 3.2 17.7 0.00 0.00 0.00 19 1013.1
20260506225916 27 110 6.4 17.7 0.00 0.00 0.00 19 1013.1
20260506225417 27 110 16.1 17.7 0.00 0.00 0.00 19 1013.2
20260506224918 27 110 6.4 20.9 0.00 0.00 0.00 19 1013.3
20260506224416 27 110 12.9 24.1 0.00 0.00 0.00 19 1013.3
20260506223917 27 110 4.8 14.5 0.00 0.00 0.00 19 1013.4
20260506223416 27 110 6.4 16.1 0.00 0.00 0.00 19 1013.4
20260506222917 26 110 8.0 17.7 0.00 0.00 0.00 19 1013.5
20260506222416 26 110 17.7 22.5 0.00 0.00 0.00 19 1013.5
20260506221916 27 110 12.9 20.9 0.00 0.00 0.00 18 1013.6
20260506221416 27 110 11.3 20.9 0.00 0.00 0.00 19 1013.7
20260506220916 27 110 4.8 17.7 0.00 0.00 0.00 19 1013.8
20260506220416 27 110 3.2 12.9 0.00 0.00 0.00 19 1013.8
20260506215916 26 110 3.2 20.9 0.00 0.00 0.00 20 1013.9
20260506215416 26 110 4.8 14.5 0.00 0.00 0.00 20 1013.9
20260506214916 27 110 12.9 22.5 0.00 0.00 0.00 19 1014.0
20260506214417 27 110 17.7 22.5 0.00 0.00 0.00 19 1014.0
20260506213916 26 110 3.2 16.1 0.00 0.00 0.00 20 1014.1
20260506213416 27 110 11.3 19.3 0.00 0.00 0.00 19 1014.3
20260506212916 27 110 14.5 22.5 0.00 0.00 0.00 20 1014.3
20260506212416 26 110 11.3 17.7 0.00 0.00 0.00 20 1014.3
20260506211916 26 110 11.3 17.7 0.00 0.00 0.00 20 1014.4
20260506211416 26 110 16.1 19.3 0.00 0.00 0.00 21 1014.4
20260506210916 26 110 16.1 19.3 0.00 0.00 0.00 21 1014.5
20260506210416 26 110 1.6 12.9 0.00 0.00 0.00 20 1014.5
20260506205916 27 110 6.4 19.3 0.00 0.00 0.00 20 1014.7
20260506205416 27 110 8.0 17.7 0.00 0.00 0.00 19 1014.8
20260506204916 26 110 1.6 16.1 0.00 0.00 0.00 20 1014.8
20260506204416 26 110 8.0 16.1 0.00 0.00 0.00 21 1014.9
20260506203916 26 110 11.3 14.5 0.00 0.00 0.00 21 1015.0
20260506203416 26 110 6.4 19.3 0.00 0.00 0.00 21 1015.0
20260506202918 26 110 14.5 22.5 0.00 0.00 0.00 21 1015.0
20260506202416 25 110 4.8 8.0 0.00 0.00 0.00 23 1015.1
20260506201916 25 110 8.0 11.3 0.00 0.00 0.00 21 1015.1
20260506201416 26 110 0.0 14.5 0.00 0.00 0.00 21 1015.2
20260506200916 26 110 4.8 20.9 0.00 0.00 0.00 21 1015.2
20260506200416 25 110 8.0 11.3 0.00 0.00 0.00 24 1015.2
20260506195917 25 110 0.0 11.3 0.00 0.00 0.00 23 1015.3
20260506195417 25 110 1.6 19.3 0.00 0.00 0.00 23 1015.4
20260506194916 26 110 6.4 20.9 0.00 0.00 0.00 22 1015.3
20260506194417 25 110 16.1 19.3 0.00 0.00 0.00 23 1015.3
20260506193917 25 110 17.7 20.9 0.00 0.00 0.00 23 1015.4
20260506193416 24 110 11.3 25.7 0.00 0.00 0.00 24 1015.4
20260506192916 25 110 17.7 20.9 0.00 0.00 0.00 25 1015.4
20260506192416 24 110 3.2 11.3 0.00 0.00 0.00 24 1015.5
20260506191916 24 110 3.2 17.7 0.00 0.00 0.00 24 1015.6
20260506191416 25 110 12.9 22.5 0.00 0.00 0.00 24 1015.7
20260506190916 25 110 11.3 22.5 0.00 0.00 0.00 24 1015.7
20260506190417 24 110 8.0 14.5 0.00 0.00 0.00 26 1015.7
20260506185916 23 110 6.4 17.7 0.00 0.00 0.00 26 1015.8
20260506185416 24 110 3.2 12.9 0.00 0.00 0.00 25 1015.9
20260506184916 24 110 12.9 16.1 0.00 0.00 0.00 26 1015.9
20260506184416 23 110 8.0 22.5 0.00 0.00 0.00 26 1016.0
20260506183917 23 110 6.4 11.3 0.00 0.00 0.00 27 1016.1
20260506183416 24 110 8.0 16.1 0.00 0.00 0.00 26 1016.2
20260506182916 23 110 6.4 6.4 0.00 0.00 0.00 27 1016.2